Tracking 17150 objects as of 5-August-2015
HD Live streaming from Space Station

SL-8 R/B

Track SL-8 R/B now!
10-day predictions
SL-8 R/B is classified as:


NORAD ID: 13950
Int'l Code: 1983-023B
Perigee: 954.5 km
Apogee: 1,010.3 km
Inclination: 83.0 °
Period: 104.6 minutes
Semi major axis: 7353 km
RCS: 4.7862 m2 (large)
Launch date: March 30, 1983
Source: Commonwealth of Independent States (former USSR) (CIS)

Note: This is a ROCKET BODY
Your satellite tracking list
Your tracking list is empty





NASA's NSSDC Master Catalog

Two Line Element Set (TLE):
1 13950U 83023B   15214.84860934  .00000068  00000-0  53072-4 0  9994
2 13950 082.9554 118.4192 0037901 024.5935 041.0319 13.76799746624848

Source of the keplerian elements: AFSPC

N2YO: 276